Regional Weather Roundup
Issued by NWS Charleston, WV

Home | Current Version | Previous Version | Graphics & Text | Print | Product List | Glossary On
Versions: 1 2 3 4 5 6 7 8 9 10 11 12 13 14 15 16 17 18 19 20 21 22 23 24 25 26 27 28 29 30 31 32 33 34 35 36 37 38 39 40 41 42 43 44 45 46 47 48 49 50
000
ASUS41 KRLX 210610
RWRRLX
West Virginia Regional Weather Roundup
National Weather Service Charleston WV
100 AM EST SUN DEC 21 2014

Note: "fair" indicates few or no clouds below 12,000 feet with no
significant weather and/or obstructions to visibility.

WVZ003-210700-
Northern Panhandle of West Virginia

CITY           SKY/WX    TMP DP  RH WIND       PRES   REMARKS
WHEELING       CLOUDY    27  21  78 SE3       30.24F
$$

WVZ009-210700-
Northwest West Virginia

CITY           SKY/WX    TMP DP  RH WIND       PRES   REMARKS
PARKERSBURG    CLOUDY    32  24  72 CALM      30.30S
$$

WVZ006-210700-
Western West Virginia

CITY           SKY/WX    TMP DP  RH WIND       PRES   REMARKS
HUNTINGTON     PTCLDY    30  26  85 CALM      30.27S
$$

WVZ015-210700-
West Central West Virginia

CITY           SKY/WX    TMP DP  RH WIND       PRES   REMARKS
CHARLESTON     CLOUDY    33  26  75 CALM      30.26S
$$

WVZ022-031-210700-
North Central West Virginia

CITY           SKY/WX    TMP DP  RH WIND       PRES   REMARKS
CLARKSBURG     CLOUDY    31  23  72 CALM      30.25S
MORGANTOWN     CLOUDY    30  19  63 N3        30.25F
$$

WVZ025-035-042-045-210700-
Southern West Virginia

CITY           SKY/WX    TMP DP  RH WIND       PRES   REMARKS
BECKLEY        CLOUDY    32  26  78 CALM      30.18F
LOGAN          CLOUDY    32  27  80 CALM      30.22F
BLUEFIELD      CLOUDY    33  30  88 CALM      30.18S
LEWISBURG      CLOUDY    35  30  82 SW5       30.18F
$$

WVZ047-210700-
Northern Mountains of West Virginia

CITY           SKY/WX    TMP DP  RH WIND       PRES   REMARKS
ELKINS         MIX PCPN  31  25  78 CALM      30.20F
$$

WVZ052-210700-
Eastern Panhandle of West Virginia

CITY           SKY/WX    TMP DP  RH WIND       PRES   REMARKS
MARTINSBURG    CLOUDY    32  22  66 N3        30.28S
PETERSBURG     CLOUDY    33  29  86 CALM      30.26S
$$



USA.gov is the U.S. government's official web portal to all federal, state and local government web resources and services.